Lid_Strength_Index
3 3 3 3 3 3 3 3 3 3 2 2 1 0 -1 -1 -1 -0 3 1 4 7 6 5 6 7 7 7 9 9 9 9 10 11 12 12 13 12 12 12 13 13 14 14 14 16 18 8 8 12 9 8 8 8
3 3 3 3 3 3 3 3 3 3 2 2 1 0 0 -1 -1 -1 3 1 0 5 6 3 4 3 4 4 6 7 7 8 7 9 9 9 12 10 12 15 10 14 12 12 11 12 7 6 8 6 7 8 9 9
3 3 3 3 3 3 3 3 2 2 2 2 1 0 -0 -1 -1 -1 3 2 2 6 6 6 7 4 3 3 2 7 6 6 6 5 7 8 12 9 13 12 11 9 7 10 10 9 8 7 5 5 5 6 5 6
-0 1 1 1 1 1 1 1 2 2 2 2 1 0 -0 0 -1 -1 4 2 2 5 8 8 4 5 2 3 3 3 5 4 5 5 8 9 11 8 11 10 11 10 9 10 10 9 7 6 5 5 5 5 5 6
-1 -1 -1 -1 -1 -1 -1 -0 -0 0 1 1 1 0 -0 1 -1 -1 2 2 1 5 8 8 7 4 3 3 4 4 5 5 6 8 9 10 8 9 9 9 11 9 10 11 12 8 7 7 6 6 6 6 6 6
-1 -1 -1 -1 -1 -1 -1 -1 -1 -1 -0 0 0 -0 -1 1 -1 1 7 2 1 2 7 10 6 6 5 5 5 5 5 6 6 8 9 8 7 9 12 13 10 8 7 7 8 6 6 6 6 5 6 6 6 8
-1 -1 -1 -1 -1 -1 -1 -1 -1 -1 -1 -0 -0 -1 -1 1 0 5 6 4 0 2 7 11 10 8 5 5 5 6 5 6 7 8 9 9 8 8 10 14 11 8 7 7 6 6 8 7 7 5 5 6 8 10
-0 -0 -1 -1 -1 -1 -1 -1 -1 -1 -1 -1 -1 -0 -0 1 -0 5 3 0 1 4 6 10 12 10 6 8 9 6 8 8 8 8 8 9 8 8 13 11 9 8 7 7 7 7 7 6 8 9 8 9 10 10
-1 -1 -1 -1 -1 -1 -1 -1 -1 -1 -1 -1 -0 0 3 3 6 5 0 -0 3 5 10 10 12 13 7 8 7 8 7 11 7 10 10 8 10 13 10 9 9 12 13 15 15 14 12 12 11 10 10 10 11 10
-1 -0 -0 -0 -0 -0 -0 -0 -0 -1 -0 0 2 5 8 6 1 1 5 7 8 8 9 10 8 12 8 8 9 9 8 10 12 10 7 10 12 9 16 17 18 18 18 18 18 14 17 17 15 13 12 13 14 13
-0 -0 -0 -0 -0 0 -0 -0 -0 -0 0 4 7 7 5 1 5 7 10 10 10 12 10 10 8 11 8 10 10 8 10 9 13 10 10 11 12 13 19 20 19 19 20 19 19 19 18 18 18 18 16 16 17 17
-0 0 0 0 0 0 0 -0 -0 2 4 5 5 5 5 8 9 12 13 12 12 13 12 10 10 8 9 7 8 10 11 11 15 10 11 14 13 22 23 23 22 22 22 22 21 21 20 20 20 21 19 20 20 20
-0 0 0 -0 -0 0 -0 0 1 1 1 4 7 9 10 12 14 15 17 16 15 13 12 10 11 9 8 7 9 10 13 14 11 13 14 13 23 24 25 25 25 24 23 23 22 22 22 22 23 24 24 23 22 23
-0 -0 -0 -0 -0 -0 -0 2 2 2 4 8 10 15 13 14 13 14 12 12 15 11 10 9 10 10 9 10 10 13 11 12 14 16 15 19 26 27 26 25 26 26 26 25 24 24 24 24 25 26 26 25 24 25
-0 -0 -0 0 0 1 2 4 6 11 12 14 12 16 18 23 23 23 20 18 21 16 10 10 10 9 10 11 10 11 15 15 13 14 19 23 26 27 26 26 26 27 26 26 25 25 25 25 26 26 26 25 24 25
-0 1 2 0 1 1 3 8 12 13 20 20 25 19 21 18 21 21 20 21 20 17 14 10 10 11 12 11 12 13 14 15 14 21 24 25 26 27 27 27 26 26 26 26 26 25 25 26 26 26 26 27 27 26
0 3 1 3 4 5 5 12 15 20 22 22 26 26 25 24 25 26 23 23 21 17 13 12 14 13 13 14 15 16 14 20 24 25 25 26 27 27 27 27 27 26 26 25 25 25 25 25 24 25 27 27 26 27
6 4 2 3 6 9 14 14 18 20 25 25 25 27 26 25 25 25 24 23 20 18 16 14 14 15 15 15 14 22 25 25 25 25 25 26 26 26 26 26 27 26 26 26 26 26 25 25 25 26 25 25 26 27
5 5 4 4 7 12 16 18 17 24 24 24 24 24 25 25 25 25 24 23 22 22 18 17 15 14 17 25 26 27 26 26 26 25 25 26 26 27 26 26 26 26 27 27 27 27 27 28 27 26 26 26 28 27
6 5 5 7 8 14 18 19 16 21 23 24 23 25 25 26 26 26 26 25 24 23 23 22 25 28 27 28 27 27 27 26 25 26 25 25 25 26 27 26 25 25 26 27 27 26 27 28 29 29 29 28 29 30
9 10 10 11 15 17 20 20 21 21 22 24 23 23 26 25 27 27 27 26 26 29 29 30 29 29 29 29 28 28 27 27 26 25 25 27 26 26 26 26 26 26 27 27 28 29 29 30 30 29 29 30 30 30
14 11 15 14 16 19 20 21 20 20 22 24 24 25 26 26 27 28 27 27 30 31 30 29 29 29 29 29 30 29 29 29 27 25 26 26 27 27 28 27 27 29 29 29 29 30 30 30 29 29 30 30 29 30
15 15 20 21 21 22 25 20 23 23 25 25 24 26 28 28 28 25 30 31 30 28 29 29 30 32 30 30 32 30 30 29 27 27 28 28 28 28 29 29 28 28 30 30 29 30 31 30 30 30 30 30 30 30
19 26 28 29 26 28 26 28 24 25 25 27 27 29 29 29 26 28 31 31 30 29 29 30 29 29 29 31 29 30 29 27 28 28 28 28 30 31 30 31 31 31 30 30 30 31 31 31 31 31 32 32 32 32
21 34 30 33 30 30 30 30 30 27 30 31 30 30 30 28 29 31 31 31 30 30 30 29 28 28 29 30 29 30 30 27 28 30 29 28 30 30 31 31 32 33 32 30 31 31 32 33 33 33 33 34 34 34
36 37 35 36 34 32 34 32 34 34 32 32 33 32 30 29 30 30 32 31 31 30 30 30 29 29 29 28 29 29 30 29 27 29 30 28 28 28 29 30 30 31 33 33 33 33 33 34 35 36 35 34 35 37
36 37 35 33 34 33 34 34 34 33 35 34 34 33 31 30 30 32 30 29 30 30 29 29 29 28 28 30 30 30 30 30 29 29 29 30 30 30 29 29 30 31 34 35 35 36 35 36 35 35 35 35 34 35
35 34 37 36 36 36 39 37 37 38 36 34 35 34 34 32 32 32 31 29 30 30 30 30 29 28 28 29 29 30 30 30 30 30 30 31 31 31 32 32 32 30 33 34 34 35 37 37 37 36 36 35 34 33
35 35 34 41 38 36 37 37 37 35 34 35 35 34 34 32 32 33 31 30 31 31 32 32 31 30 30 30 30 30 29 30 30 30 30 28 29 30 31 31 32 32 33 35 34 30 32 34 34 33 33 33 33 33
36 36 36 40 40 38 35 36 36 36 36 34 34 33 33 33 32 31 32 33 33 33 32 32 32 31 30 29 29 30 30 30 30 29 29 28 28 30 31 32 32 33 35 38 36 35 32 32 34 36 35 34 33 33
34 35 35 34 36 34 34 35 36 37 36 35 35 36 34 33 32 30 31 31 32 34 34 35 36 34 33 30 30 29 29 29 30 30 30 30 31 32 32 33 33 35 37 38 37 38 36 36 36 37 36 36 35 34
35 39 36 36 35 35 36 36 35 36 35 36 36 36 36 34 32 29 28 30 33 34 33 34 34 32 31 29 27 28 28 29 30 30 31 31 32 32 33 34 36 38 38 37 37 37 37 37 36 36 35 35 34 34
37 35 36 34 36 35 36 38 35 34 35 35 35 37 38 36 32 29 31 31 31 30 31 31 30 30 31 30 29 29 29 30 30 29 27 28 30 30 33 34 35 36 36 36 34 34 35 35 35 35 35 34 34 33